EW2748 Weather Reports


Display with metric or nautical units.
time (UTC)temp
F
wind
direction
speed
MPH
gust
MPH
rain 1hr
in
rain 24hr
in
rain mn
in
humidity
%
barometer
mb
20260504191002 77 83 3.0 7.0 0.00 0.00 0.00 45 1014.7
20260504190504 78 148 1.0 6.0 0.00 0.00 0.00 46 1014.8
20260504190013 77 127 0.0 4.0 0.00 0.00 0.00 48 1014.8
20260504185503 77 152 2.0 5.0 0.00 0.00 0.00 45 1014.9
20260504185006 77 103 1.0 5.0 0.00 0.00 0.00 46 1014.9
20260504184510 77 127 1.0 7.0 0.00 0.00 0.00 47 1015.0
20260504184003 77 121 3.0 8.0 0.00 0.00 0.00 45 1015.1
20260504183504 77 100 3.0 8.0 0.00 0.00 0.00 45 1015.2
20260504183009 77 304 1.0 7.0 0.00 0.00 0.00 47 1015.2
20260504182504 77 151 3.0 6.0 0.00 0.00 0.00 46 1015.4
20260504182005 77 250 0.0 6.0 0.00 0.00 0.00 46 1015.4
20260504181520 76 96 2.0 6.0 0.00 0.00 0.00 46 1015.4
20260504181004 77 146 1.0 6.0 0.00 0.00 0.00 46 1015.5
20260504180506 76 138 2.0 6.0 0.00 0.00 0.00 47 1015.5
20260504180014 77 109 3.0 6.0 0.00 0.00 0.00 45 1015.5
20260504175502 76 106 2.0 6.0 0.00 0.00 0.00 47 1015.5
20260504175004 76 72 2.0 6.0 0.00 0.00 0.00 49 1015.6
20260504174512 76 112 1.0 6.0 0.00 0.00 0.00 46 1015.6
20260504174003 77 73 2.0 6.0 0.00 0.00 0.00 46 1015.7
20260504173503 77 115 0.0 4.0 0.00 0.00 0.00 48 1015.7
20260504173013 76 122 0.0 7.0 0.00 0.00 0.00 47 1015.8
20260504172503 75 37 0.0 7.0 0.00 0.00 0.00 48 1015.9
20260504172004 76 84 2.0 6.0 0.00 0.00 0.00 48 1016.0
20260504171510 75 231 0.0 6.0 0.00 0.00 0.00 52 1016.1
20260504171006 74 247 2.0 6.0 0.00 0.00 0.00 50 1016.2
20260504170505 75 94 1.0 5.0 0.00 0.00 0.00 50 1016.3
20260504150507 68 235 0.0 3.0 0.00 0.00 0.00 56 1017.3
20260504141007 64 156 2.0 6.0 0.00 0.00 0.00 60 1017.6
20260504140508 63 134 0.0 4.0 0.00 0.00 0.00 64 1017.7
20260504130506 58 103 1.0 2.0 0.00 0.00 0.00 68 1018.1
20260504100507 48 295 0.0 0.0 0.00 0.00 0.00 88 1016.9
20260504082008 48 295 0.0 0.0 0.00 0.00 0.00 88 1016.8
20260504081534 48 295 0.0 0.0 0.00 0.00 0.00 88 1016.8
20260504081008 48 295 0.0 0.0 0.00 0.00 0.00 88 1016.9
20260504080509 48 295 0.0 0.0 0.00 0.00 0.00 88 1016.9
20260504050507 50 295 0.0 0.0 0.00 0.00 0.00 85 1018.2
20260504050024 50 295 0.0 0.0 0.00 0.00 0.00 84 1018.2
20260504045503 50 295 0.0 0.0 0.00 0.00 0.00 84 1018.2
20260504045004 51 295 0.0 0.0 0.00 0.00 0.00 83 1018.1
20260504044522 51 295 0.0 0.0 0.00 0.00 0.00 83 1018.1
20260504043504 51 295 0.0 0.0 0.00 0.00 0.00 81 1018.1
20260504043017 51 295 0.0 0.0 0.00 0.00 0.00 81 1018.2
20260504042509 52 295 0.0 0.0 0.00 0.00 0.00 80 1018.2
20260504042002 52 295 0.0 0.0 0.00 0.00 0.00 80 1018.1
20260504041512 52 295 0.0 0.0 0.00 0.00 0.00 79 1018.0
20260504041006 52 295 0.0 0.0 0.00 0.00 0.00 79 1017.9
20260504040507 52 295 0.0 0.0 0.00 0.00 0.00 79 1017.9
20260504040010 52 295 0.0 0.0 0.00 0.00 0.00 78 1018.0
20260504035505 51 295 0.0 0.0 0.00 0.00 0.00 79 1018.1
20260504035007 51 295 0.0 0.0 0.00 0.00 0.00 79 1018.2
20260504034512 51 295 0.0 0.0 0.00 0.00 0.00 79 1018.3
20260504034004 51 295 0.0 0.0 0.00 0.00 0.00 79 1018.2
20260504033507 51 295 0.0 0.0 0.00 0.00 0.00 78 1018.3
20260504033044 51 295 0.0 0.0 0.00 0.00 0.00 78 1018.4
20260504032504 51 295 0.0 0.0 0.00 0.00 0.00 78 1018.5
20260504032005 52 295 0.0 0.0 0.00 0.00 0.00 77 1018.5
20260504031527 52 295 0.0 0.0 0.00 0.00 0.00 76 1018.6
20260504031005 52 295 0.0 0.0 0.00 0.00 0.00 77 1018.6
20260504030503 52 295 0.0 0.0 0.00 0.00 0.00 77 1018.7
20260504030022 52 295 0.0 0.0 0.00 0.00 0.00 75 1018.8
20260504025512 52 295 0.0 0.0 0.00 0.00 0.00 74 1018.8
20260504025004 53 295 0.0 0.0 0.00 0.00 0.00 74 1018.7
20260504024535 53 295 0.0 0.0 0.00 0.00 0.00 73 1018.8
20260504024008 53 295 0.0 0.0 0.00 0.00 0.00 72 1018.7
20260504023508 53 295 0.0 0.0 0.00 0.00 0.00 73 1018.7
20260504023011 53 295 0.0 0.0 0.00 0.00 0.00 72 1018.7
20260504022504 53 295 0.0 0.0 0.00 0.00 0.00 70 1018.7
20260504022014 54 295 0.0 0.0 0.00 0.00 0.00 69 1018.6
20260504021510 54 295 0.0 0.0 0.00 0.00 0.00 70 1018.6
20260504021005 54 295 0.0 0.0 0.00 0.00 0.00 68 1018.5
20260504020505 54 295 0.0 0.0 0.00 0.00 0.00 67 1018.4
20260504020028 55 295 0.0 0.0 0.00 0.00 0.00 68 1018.4
20260504015504 55 295 0.0 0.0 0.00 0.00 0.00 67 1018.3
20260504015007 55 295 0.0 0.0 0.00 0.00 0.00 67 1018.3
20260504014524 56 295 0.0 0.0 0.00 0.00 0.00 64 1018.3
20260504014005 56 295 0.0 0.0 0.00 0.00 0.00 64 1018.2
20260504013506 56 295 0.0 0.0 0.00 0.00 0.00 63 1018.0
20260504013023 56 295 0.0 0.0 0.00 0.00 0.00 62 1017.9
20260504012507 57 295 0.0 0.0 0.00 0.00 0.00 61 1017.8
20260504012004 57 295 0.0 0.0 0.00 0.00 0.00 62 1017.7
20260504011518 57 295 0.0 0.0 0.00 0.00 0.00 60 1017.8
20260504011007 58 295 0.0 0.0 0.00 0.00 0.00 59 1017.7
20260504010510 58 295 0.0 0.0 0.00 0.00 0.00 57 1017.7
20260504010014 58 295 0.0 0.0 0.00 0.00 0.00 56 1017.8
20260504005508 59 295 0.0 0.0 0.00 0.00 0.00 57 1017.8
20260504005010 60 295 0.0 0.0 0.00 0.00 0.00 56 1017.8
20260504004525 60 295 0.0 0.0 0.00 0.00 0.00 53 1017.7
20260504004008 61 295 0.0 0.0 0.00 0.00 0.00 53 1017.7
20260504003510 61 295 0.0 0.0 0.00 0.00 0.00 49 1017.7
20260504003027 62 295 0.0 0.0 0.00 0.00 0.00 50 1017.7
20260504002506 62 295 0.0 0.0 0.00 0.00 0.00 47 1017.8
20260504002009 63 295 0.0 0.0 0.00 0.00 0.00 45 1017.9
20260504001526 63 295 0.0 0.0 0.00 0.00 0.00 44 1017.9
20260504001007 64 295 0.0 0.0 0.00 0.00 0.00 41 1017.9
20260504000507 64 295 0.0 0.0 0.00 0.00 0.00 42 1017.9
20260504000025 64 296 0.0 0.0 0.00 0.00 0.00 39 1017.9
20260503235509 64 296 0.0 1.0 0.00 0.00 0.00 40 1018.0
20260503235003 65 296 0.0 4.0 0.00 0.00 0.00 41 1018.0
20260503234521 65 275 0.0 4.0 0.00 0.00 0.00 37 1018.0
20260503234012 65 5 1.0 3.0 0.00 0.00 0.00 38 1018.1
20260503233505 66 287 0.0 2.0 0.00 0.00 0.00 39 1018.1
20260503233018 66 330 0.0 1.0 0.00 0.00 0.00 39 1018.1
20260503232013 66 347 0.0 2.0 0.00 0.00 0.00 38 1018.1
20260503231516 66 303 0.0 4.0 0.00 0.00 0.00 37 1018.3
20260503231010 66 318 0.0 4.0 0.00 0.00 0.00 38 1018.2
20260503230511 66 342 0.0 2.0 0.00 0.00 0.00 37 1018.2
20260503230028 66 332 0.0 3.0 0.00 0.00 0.00 38 1018.3
20260503225008 66 292 0.0 2.0 0.00 0.00 0.00 38 1018.3
20260503224527 66 93 0.0 4.0 0.00 0.00 0.00 37 1018.4
20260503223504 67 225 1.0 6.0 0.00 0.00 0.00 38 1018.3
20260503223025 67 257 0.0 4.0 0.00 0.00 0.00 37 1018.4
20260503222509 67 263 1.0 6.0 0.00 0.00 0.00 40 1018.4
20260503222006 67 277 0.0 6.0 0.00 0.00 0.00 40 1018.5
20260503221521 67 286 0.0 3.0 0.00 0.00 0.00 38 1018.5
20260503221012 67 62 1.0 4.0 0.00 0.00 0.00 38 1018.6
20260503220505 67 240 0.0 4.0 0.00 0.00 0.00 40 1018.6
20260503220023 67 259 0.0 4.0 0.00 0.00 0.00 40 1018.6
20260503215506 67 34 2.0 4.0 0.00 0.00 0.00 39 1018.6
20260503215009 67 10 0.0 5.0 0.00 0.00 0.00 41 1018.6
20260503214515 67 255 1.0 5.0 0.00 0.00 0.00 40 1018.6
20260503214009 67 39 1.0 5.0 0.00 0.00 0.00 39 1018.8
20260503213503 67 297 2.0 5.0 0.00 0.00 0.00 37 1019.0
20260503213017 67 281 3.0 5.0 0.00 0.00 0.00 37 1019.1
20260503212506 67 65 0.0 5.0 0.00 0.00 0.00 39 1019.1
20260503212009 68 2 1.0 5.0 0.00 0.00 0.00 38 1019.2
20260503211510 68 333 2.0 5.0 0.00 0.00 0.00 37 1019.3
20260503211005 68 270 0.0 4.0 0.00 0.00 0.00 39 1019.2
20260503210506 68 17 1.0 4.0 0.00 0.00 0.00 38 1019.3
20260503210008 68 285 1.0 7.0 0.00 0.00 0.00 39 1019.2
20260503205504 68 303 2.0 7.0 0.00 0.00 0.00 37 1019.2
20260503205005 69 290 1.0 4.0 0.00 0.00 0.00 37 1019.2
20260503204528 69 249 0.0 3.0 0.00 0.00 0.00 36 1019.4
20260503204003 69 276 0.0 3.0 0.00 0.00 0.00 37 1019.4
20260503203506 69 65 0.0 2.0 0.00 0.00 0.00 38 1019.5
20260503203023 69 308 0.0 7.0 0.00 0.00 0.00 38 1019.6
20260503202504 68 215 2.0 7.0 0.00 0.00 0.00 38 1019.7
20260503202006 69 261 1.0 3.0 0.00 0.00 0.00 38 1019.8
20260503201520 68 266 1.0 4.0 0.00 0.00 0.00 41 1019.9
20260503201009 68 273 2.0 4.0 0.00 0.00 0.00 37 1020.1
20260503200502 68 267 0.0 4.0 0.00 0.00 0.00 38 1020.1
20260503200016 68 307 1.0 4.0 0.00 0.00 0.00 37 1020.2
20260503195509 68 46 1.0 4.0 0.00 0.00 0.00 41 1020.3
20260503195010 68 87 1.0 4.0 0.00 0.00 0.00 36 1020.3
20260503194512 68 70 1.0 2.0 0.00 0.00 0.00 37 1020.5
20260503194004 68 265 0.0 4.0 0.00 0.00 0.00 39 1020.6
20260503193510 68 337 1.0 4.0 0.00 0.00 0.00 36 1020.8
20260503193028 68 349 0.0 4.0 0.00 0.00 0.00 36 1020.8
20260503192504 68 347 1.0 4.0 0.00 0.00 0.00 36 1021.0
20260503192007 68 245 0.0 5.0 0.00 0.00 0.00 35 1021.1
20260503191524 67 308 1.0 7.0 0.00 0.00 0.00 37 1021.2